This demonstration page uses our WeatherBlox Daily Observations layout. Learn more.

Hourly Observations for October 26, 2020

Temp ( °F °C ) Dew Point ( °F °C ) Humidity (%) Winds ( mph kmh ) Pressure ( in mb ) Visibility ( mi km ) Precip ( " mm )
12:15 am 00:15 Cloudy with Light Snow 21 -6.3 18 -7.7 90 90 N 12 19 30.58 1036 2 3.21868 0 0
12:35 am 00:35 Cloudy with Light Snow 20 -6.4 18 -7.9 89 89 N 14 22 30.59 1036 1.75 2.816345 0 0
12:55 am 00:55 Cloudy with Light Snow 20 -6.5 17 -8.1 89 89 N 15 24 30.59 1036 3 4.82802 0 0
1:15 am 01:15 Cloudy with Light Snow 20 -6.5 17 -8.1 89 89 N 13 20 30.59 1036 4 6.43736 0 0
1:35 am 01:35 Cloudy with Light Snow 20 -6.6 17 -8.2 89 89 N 12 19 30.59 1036 5 8.0467 0 0
1:55 am 01:55 Cloudy with Light Snow 20 -6.5 17 -8.1 89 89 N 10 17 30.59 1036 5 8.0467 0 0
2:15 am 02:15 Cloudy with Light Snow 19 -7.2 16 -9.1 86 86 N 17 28 30.61 1037 3 4.82802 0 0
2:35 am 02:35 Cloudy with Light Snow 18 -7.6 15 -9.4 87 87 N 17 28 30.6 1036 1.75 2.816345 0.01 0.254
2:55 am 02:55 Cloudy with Light Snow 18 -7.9 15 -9.5 88 88 N 16 26 30.6 1036 1.5 2.41401 0.01 0.254
3:15 am 03:15 Cloudy with Light Snow 18 -8 15 -9.5 89 89 N 13 20 30.6 1036 2.5 4.02335 0 0
3:35 am 03:35 Cloudy with Light Snow 17 -8.1 14 -9.8 88 88 N 13 20 30.6 1036 2.5 4.02335 0 0
3:55 am 03:55 Cloudy with Light Snow 17 -8.2 14 -10.1 86 86 N 14 22 30.58 1035 4 6.43736 0 0
4:15 am 04:15 Cloudy with Light Snow 17 -8.3 14 -10.2 86 86 N 12 19 30.59 1036 5 8.0467 0 0
4:35 am 04:35 Cloudy with Light Snow 17 -8.5 13 -10.5 86 86 N 10 17 30.59 1036 7 11.26538 0 0
4:55 am 04:55 Cloudy 17 -8.5 13 -10.8 84 84 N 12 19 30.58 1036 10 16.0934 0 0
5:15 am 05:15 Cloudy 17 -8.5 13 -10.8 84 84 N 13 20 30.58 1036 7 11.26538 0 0
5:35 am 05:35 Cloudy 17 -8.6 13 -10.8 84 84 N 10 17 30.58 1036 10 16.0934 0 0
5:55 am 05:55 Cloudy 17 -8.6 13 -10.7 85 85 N 10 17 30.58 1036 10 16.0934 0 0
6:15 am 06:15 Cloudy with Light Snow 16 -8.7 13 -10.7 86 86 N 7 11 30.58 1036 5 8.0467 0 0
6:35 am 06:35 Cloudy with Light Snow 16 -8.7 13 -10.6 86 86 N 9 15 30.58 1036 4 6.43736 0 0
6:55 am 06:55 Cloudy with Light Snow 16 -8.7 13 -10.5 87 87 N 10 17 30.59 1036 5 8.0467 0 0
7:15 am 07:15 Cloudy 16 -8.8 12 -10.9 85 85 N 10 17 30.59 1036 10 16.0934 0 0
7:35 am 07:35 Cloudy with Light Snow 16 -8.8 12 -11.1 84 84 NNW 10 17 30.6 1036 10 16.0934 0 0
7:55 am 07:55 Cloudy with Light Snow 16 -8.8 11 -11.4 82 82 NNW 10 17 30.61 1037 3 4.82802 0 0
8:15 am 08:15 Cloudy with Snow 16 -9 12 -11 86 86 N 7 11 30.63 1037 1 1.60934 0 0
8:35 am 08:35 Cloudy with Snow 16 -9 13 -10.5 89 89 NNW 7 11 30.63 1037 0.25 0.402335 0.02 0.508
8:55 am 08:55 Cloudy with Heavy Snow 16 -9 13 -10.5 89 89 NNW 7 11 30.64 1037 0.25 0.402335 0.02 0.508
9:15 am 09:15 Cloudy with Light Snow 16 -9 13 -10.5 89 89 NNW 8 13 30.64 1037 0.75 1.207005 0.01 0.254
9:35 am 09:35 Cloudy with Light Snow 16 -8.8 13 -10.7 86 86 NNW 8 13 30.62 1037 4 6.43736 0.03 0.762
9:55 am 09:55 Cloudy with Light Snow 16 -8.7 12 -10.9 84 84 N 8 13 30.62 1037 5 8.0467 0.04 1.016
10:15 am 10:15 Cloudy 17 -8.2 12 -11.3 79 79 NNW 8 13 30.62 1037 10 16.0934 0 0
10:35 am 10:35 Cloudy 18 -7.7 10 -12 72 72 NNW 8 13 30.61 1037 10 16.0934 0 0
10:55 am 10:55 Cloudy 19 -7.4 10 -12.1 69 69 NNW 10 17 30.61 1037 10 16.0934 0 0
11:15 am 11:15 Cloudy 20 -6.8 10 -12 67 67 N 9 15 30.6 1036 10 16.0934 0 0
11:35 am 11:35 Mostly Cloudy 20 -6.5 10 -12 65 65 N 6 9 30.59 1036 10 16.0934 0 0
11:55 am 11:55 Mostly Cloudy 21 -6 10 -12 63 63 N 8 13 30.6 1036 10 16.0934 0 0
12:15 pm 12:15 Partly Cloudy 22 -5.6 11 -11.8 62 62 N 7 11 30.59 1036 10 16.0934 0 0
12:35 pm 12:35 Sunny 22 -5.3 11 -11.4 63 63 NNE 8 13 30.59 1036 10 16.0934 0 0
12:55 pm 12:55 Sunny 23 -5.2 11 -11.4 62 62 NNE 9 15 30.56 1035 10 16.0934 0 0
1:15 pm 13:15 Sunny 23 -5 11 -11.5 61 61 NNE 8 13 30.55 1034 10 16.0934 0 0
1:35 pm 13:35 Partly Cloudy 23 -5.1 11 -11.5 61 61 N 8 13 30.55 1034 10 16.0934 0 0
1:55 pm 13:55 Sunny 24 -4.6 12 -11.2 60 60 NNE 8 13 30.53 1034 10 16.0934 0 0
2:15 pm 14:15 Sunny 24 -4.5 12 -11.2 60 60 N 6 9 30.53 1034 10 16.0934 0 0
2:35 pm 14:35 Partly Cloudy 24 -4.5 12 -11.3 59 59 N 5 7 30.53 1034 10 16.0934 0 0
2:55 pm 14:55 Partly Cloudy 24 -4.5 11 -11.5 58 58 N 3 6 30.52 1034 10 16.0934 0 0
3:15 pm 15:15 Mostly Cloudy 24 -4.5 11 -11.8 57 57 Calm 30.51 1033 10 16.0934 0 0
3:35 pm 15:35 Cloudy 24 -4.5 11 -11.5 58 58 NNE 3 6 30.51 1033 10 16.0934 0 0
3:55 pm 15:55 Cloudy 24 -4.4 11 -11.4 59 59 NNW 5 7 30.5 1033 10 16.0934 0 0
4:15 pm 16:15 Cloudy 24 -4.3 11 -11.4 58 58 NW 3 6 30.5 1033 10 16.0934 0 0
4:35 pm 16:35 Cloudy 24 -4.3 12 -11.3 59 59 N 3 6 30.49 1032 10 16.0934 0 0
4:55 pm 16:55 Cloudy 24 -4.3 12 -11.2 59 59 Calm 30.49 1032 10 16.0934 0 0
5:15 pm 17:15 Mostly Cloudy 24 -4.2 12 -11.1 59 59 Calm 30.49 1032 10 16.0934 0 0
5:35 pm 17:35 Sunny 24 -4.3 12 -11.1 59 59 Calm 30.49 1032 10 16.0934 0 0
5:55 pm 17:55 Sunny 24 -4.5 12 -10.9 61 61 Calm 30.48 1032 10 16.0934 0 0
6:15 pm 18:15 Sunny 24 -4.6 13 -10.5 64 64 W 3 6 30.48 1032 10 16.0934 0 0
6:35 pm 18:35 Mostly Cloudy 24 -4.7 14 -10.1 66 66 W 6 9 30.49 1033 10 16.0934 0 0
6:55 pm 18:55 Cloudy 24 -4.7 14 -10.2 66 66 W 6 9 30.49 1033 10 16.0934 0 0
7:15 pm 19:15 Cloudy 24 -4.7 14 -10 67 67 WNW 6 9 30.49 1033 10 16.0934 0 0
7:35 pm 19:35 Cloudy 24 -4.7 14 -10.2 66 66 Calm 30.48 1032 10 16.0934 0 0
7:55 pm 19:55 Cloudy 24 -4.7 14 -9.9 67 67 WNW 5 7 30.49 1033 10 16.0934 0 0
8:15 pm 20:15 Cloudy 24 -4.7 15 -9.7 68 68 WNW 3 6 30.49 1033 10 16.0934 0 0
8:35 pm 20:35 Cloudy 24 -4.7 14 -9.8 68 68 WNW 3 6 30.49 1033 10 16.0934 0 0
8:55 pm 20:55 Cloudy 23 -4.8 15 -9.7 69 69 WNW 5 7 30.49 1033 10 16.0934 0 0
9:15 pm 21:15 Cloudy 23 -5 15 -9.5 71 71 W 6 9 30.52 1033 10 16.0934 0 0
9:35 pm 21:35 Mostly Cloudy 23 -5.2 15 -9.6 72 72 Calm 30.51 1033 10 16.0934 0 0
9:55 pm 21:55 Partly Cloudy 21 -6.2 14 -10 75 75 W 5 7 30.53 1034 10 16.0934 0 0
10:15 pm 22:15 Cloudy 22 -5.7 14 -10 72 72 W 3 6 30.52 1034 10 16.0934 0 0
10:35 pm 22:35 Cloudy 22 -5.3 14 -9.9 70 70 W 3 6 30.51 1033 10 16.0934 0 0
10:55 pm 22:55 Cloudy 23 -5.2 15 -9.6 72 72 W 3 6 30.51 1033 10 16.0934 0 0
11:15 pm 23:15 Cloudy 23 -5.1 15 -9.2 73 73 WSW 3 6 30.52 1033 10 16.0934 0 0
11:35 pm 23:35 Cloudy 23 -5.2 15 -9.6 72 72 Calm 30.52 1033 10 16.0934 0 0
11:55 pm 23:55 Partly Cloudy 22 -5.6 14 -10 71 71 WSW 3 6 30.52 1034 10 16.0934 0 0

Powered by AerisWeather